CAPE
0 0 0 0 0 0 0 0 0 0 0 0 0 0 0 0 0 0 0 0 0 45 440 326 452 422 1696 1097 1637 2075 33 19 82 204 380 280 117 317 457 10 333 472 0 0 11
0 0 0 0 0 0 0 0 0 0 0 0 0 0 0 0 0 0 0 0 0 78 0 0 0 53 29 81 780 265 72 82 119 58 260 352 210 317 93 97 111 37 0 0 6
0 0 0 0 0 0 0 0 0 0 0 0 0 0 0 0 0 0 0 0 0 0 0 0 0 0 0 0 3 20 90 183 253 89 348 346 233 415 120 150 111 0 0 0 30
0 0 0 0 0 0 0 0 0 0 0 0 0 0 0 0 0 0 0 0 0 0 0 0 0 0 0 0 0 111 193 315 266 123 326 310 499 383 501 428 299 0 0 0 0
0 0 0 0 0 0 0 0 0 0 0 0 0 0 0 0 0 0 0 0 0 0 0 0 0 0 0 0 48 123 86 287 274 208 295 509 511 472 500 194 63 0 0 0 0
0 0 0 0 0 0 0 0 0 0 0 0 0 0 0 0 0 0 0 0 0 0 0 0 0 0 0 0 10 89 128 158 210 260 436 421 547 561 448 116 4 0 0 0 0
0 0 0 0 0 0 0 0 0 0 0 0 0 0 0 0 0 0 0 0 0 0 0 0 0 0 0 31 20 27 71 100 213 177 420 497 464 445 447 137 59 0 0 0 13
0 0 0 0 0 0 0 0 0 0 0 0 0 0 0 0 0 0 0 0 0 0 0 0 0 0 10 15 16 98 65 210 164 213 385 143 156 494 494 242 201 157 59 9 27
0 0 0 0 0 0 0 0 0 0 0 0 0 0 0 0 0 0 0 0 0 0 0 0 0 0 0 40 83 10 124 80 2 167 113 40 126 539 549 350 205 267 279 266 228
0 0 0 0 0 0 0 0 0 0 0 0 0 0 0 0 0 0 0 0 0 0 0 0 0 0 0 0 8 1 7 0 0 59 187 121 142 510 658 527 294 247 334 365 417
0 0 0 0 0 0 0 0 0 0 0 0 0 0 0 0 0 0 0 0 0 0 0 0 0 0 0 0 0 0 0 0 0 95 101 89 143 296 608 598 501 357 268 301 334
0 0 0 0 0 0 0 0 0 0 0 0 0 0 0 0 0 0 0 0 0 0 0 0 0 0 0 0 0 0 0 0 0 92 120 119 78 202 453 506 527 514 368 329 280
0 0 0 0 0 0 0 0 0 0 0 0 0 0 0 0 0 0 0 0 0 0 0 0 0 0 0 0 0 0 0 0 0 61 186 114 25 72 236 323 404 420 307 243 244
0 0 0 0 0 0 0 0 0 0 0 0 0 0 0 0 0 0 0 0 0 0 0 0 0 0 0 0 0 0 0 0 0 0 0 18 0 0 46 118 195 240 321 300 207
0 0 0 0 0 0 0 0 0 0 0 0 0 0 0 0 0 0 0 0 0 0 0 0 0 0 0 0 0 0 0 0 0 0 0 16 47 0 0 3 26 71 129 201 255
0 0 0 0 0 0 0 0 0 0 0 0 0 0 0 0 0 0 0 0 0 0 0 0 0 0 0 0 0 0 0 0 0 0 0 0 32 0 0 0 0 22 39 60 193
0 0 0 0 0 0 0 0 0 0 0 0 0 0 0 0 0 0 0 0 0 0 0 0 0 0 0 0 0 0 0 0 0 0 0 0 0 0 0 0 0 0 3 5 23
0 0 0 0 0 0 0 0 0 0 0 0 0 0 0 0 0 0 0 0 0 0 0 0 0 0 0 0 0 0 0 0 0 0 0 0 0 0 0 0 0 0 2 0 0
0 0 0 0 0 0 0 0 0 0 0 0 0 0 0 0 0 0 0 0 0 0 0 0 0 0 0 0 0 0 0 0 0 0 0 0 0 0 0 0 0 0 4 12 3
0 0 0 0 0 0 0 0 0 0 0 0 0 0 0 0 0 0 0 0 0 0 0 0 0 0 0 0 0 0 0 0 0 0 0 0 0 0 0 0 0 0 0 0 7
0 0 0 0 0 0 0 0 0 0 0 0 0 0 0 0 0 0 0 0 0 0 0 0 0 0 0 0 0 0 0 0 0 0 0 0 0 0 0 0 0 0 0 2 7
0 0 0 0 0 0 0 0 0 0 0 0 0 0 0 0 0 0 0 0 0 0 0 0 0 0 0 0 0 0 0 0 0 0 0 0 0 0 0 0 0 0 0 15 30
0 0 0 0 0 0 0 0 0 0 0 0 0 0 0 0 0 0 0 0 0 0 0 0 0 0 0 0 0 0 0 0 0 0 0 0 0 0 0 0 0 0 0 4 34
0 0 0 0 0 0 0 0 0 0 0 0 0 0 0 0 0 0 0 0 0 0 0 0 0 0 0 0 0 0 0 0 0 0 0 0 0 0 0 0 0 0 0 0 74
0 0 0 0 0 0 0 0 0 0 0 0 0 0 0 0 0 0 0 0 0 0 0 0 0 0 0 0 0 0 0 0 0 0 0 0 0 0 0 0 0 0 0 24 81
0 0 0 0 0 0 0 0 0 0 0 0 0 0 0 0 0 0 0 0 0 0 0 0 0 0 0 0 0 0 0 0 0 0 0 0 0 0 0 0 0 0 43 199 191
0 0 0 0 0 0 0 0 0 0 0 0 0 0 0 0 0 0 0 0 0 0 0 0 0 0 0 0 0 0 0 0 1 72 0 0 4 11 0 0 0 0 131 315 389
CIN
0 0 0 0 0 0 0 0 0 0 0 0 0 0 0 0 0 0 0 0 0 -647 -507 -518 -491 -460 -281 -280 -215 -135 -147 -84 -61 -60 -55 -92 -92 -108 -128 -64 -143 -130 0 0 -240
0 0 0 0 0 0 0 0 0 0 0 0 0 0 0 0 0 0 0 0 0 -637 -1 0 0 -524 -153 -276 -184 -133 -98 -83 -83 -106 -92 -121 -125 -96 -167 -145 -158 -207 0 0 -158
0 0 0 0 0 0 0 0 0 0 0 0 0 0 0 0 0 0 0 0 0 0 0 0 0 0 0 0 -18 -130 -94 -99 -96 -117 -117 -141 -149 -94 -147 -137 -149 0 0 0 -293
0 0 0 0 0 0 0 0 0 0 0 0 0 0 0 0 0 0 0 0 0 0 0 0 0 0 0 0 0 -71 -99 -78 -117 -171 -155 -132 -137 -128 -124 -119 -188 0 0 0 0
0 0 0 0 0 0 0 0 0 0 0 0 0 0 0 0 0 0 0 0 0 0 0 0 0 0 0 -28 -111 -90 -119 -107 -130 -148 -162 -147 -121 -135 -160 -263 -377 0 0 0 0
0 0 0 0 0 0 0 0 0 0 0 0 0 0 0 0 0 0 0 0 0 0 0 0 0 0 0 0 -201 -158 -133 -129 -157 -155 -161 -130 -159 -148 -224 -343 -78 0 0 0 0
0 0 0 0 0 0 0 0 0 0 0 0 0 0 0 0 0 0 0 0 0 0 0 0 0 0 0 -216 -278 -224 -110 -134 -139 -172 -166 -160 -165 -146 -229 -358 -329 0 0 0 -297
0 0 0 0 0 0 0 0 0 0 0 0 0 0 0 0 0 0 0 0 0 0 0 0 0 0 -294 -304 -267 -133 -142 -49 -129 -151 -198 -228 -97 -194 -277 -309 -257 -237 -239 -127 -259
0 0 0 0 0 0 0 0 0 0 0 0 0 0 0 0 0 0 0 0 0 0 0 0 0 0 0 -202 -139 -133 -55 -108 -195 -178 -170 -216 -128 -227 -311 -306 -282 -233 -210 -210 -204
0 0 0 0 0 0 0 0 0 0 0 0 0 0 0 0 0 0 0 0 0 0 0 0 0 0 0 0 -48 -68 -70 0 0 -182 -176 -141 -140 -255 -312 -315 -262 -256 -210 -185 -198
0 0 0 0 0 0 0 0 0 0 0 0 0 0 0 0 0 0 0 0 0 0 0 0 0 0 0 0 0 0 0 0 0 -173 -149 -149 -155 -203 -289 -336 -272 -260 -240 -191 -178
0 0 0 0 0 0 0 0 0 0 0 0 0 0 0 0 0 0 0 0 0 0 0 0 0 0 0 0 0 0 0 0 0 -160 -125 -125 -132 -207 -300 -274 -297 -244 -230 -188 -174
0 0 0 0 0 0 0 0 0 0 0 0 0 0 0 0 0 0 0 0 0 0 0 0 0 0 0 0 0 0 0 0 0 -146 -188 -154 -96 -160 -276 -410 -373 -339 -283 -255 -177
0 0 0 0 0 0 0 0 0 0 0 0 0 0 0 0 0 0 0 0 0 0 0 0 0 0 0 0 0 0 0 0 0 0 0 -249 -36 0 -225 -291 -400 -361 -318 -250 -242
0 0 0 0 0 0 0 0 0 0 0 0 0 0 0 0 0 0 0 0 0 0 0 0 0 0 0 0 0 0 0 0 0 0 0 -222 -155 -1 0 -179 -242 -336 -393 -339 -250
0 0 0 0 0 0 0 0 0 0 0 0 0 0 0 0 0 0 0 0 0 0 0 0 0 0 0 0 0 0 0 0 0 0 0 0 -177 0 0 0 0 -261 -352 -379 -293
0 0 0 0 0 0 0 0 0 0 0 0 0 0 0 0 0 0 0 0 0 0 0 0 0 0 0 0 0 0 0 0 0 0 0 0 0 0 0 0 0 0 -309 -137 -371
0 0 0 0 0 0 0 0 0 0 0 0 0 0 0 0 0 0 0 0 0 0 0 0 0 0 0 0 0 0 0 0 0 0 0 0 0 0 0 0 0 0 -368 0 0
0 0 0 0 0 0 0 0 0 0 0 0 0 0 0 0 0 0 0 0 0 0 0 0 0 0 0 0 0 0 0 0 0 0 0 0 0 0 0 0 0 0 -389 -349 -420
0 0 0 0 0 0 0 0 0 0 0 0 0 0 0 0 0 0 0 0 0 0 0 0 0 0 0 0 0 0 0 0 0 0 0 0 0 0 0 0 0 -11 0 0 -465
0 0 0 0 0 0 0 0 0 0 0 0 0 0 0 0 0 0 0 0 0 0 0 0 0 0 0 0 0 0 0 0 0 0 0 0 0 0 0 0 0 0 -61 -217 -481
0 0 0 0 0 0 0 0 0 0 0 0 0 0 0 0 0 0 0 0 0 0 0 0 0 0 0 0 0 0 0 0 0 0 0 0 0 0 0 0 0 0 0 -358 -465
0 0 0 0 0 0 0 0 0 0 0 0 0 0 0 0 0 0 0 0 0 0 0 0 0 0 0 0 0 0 0 0 0 0 0 0 0 0 0 0 0 0 0 -335 -460
0 0 0 0 0 0 0 0 0 0 0 0 0 0 0 0 0 0 0 0 0 0 0 0 0 0 0 0 0 0 0 0 0 0 0 0 0 0 0 0 0 0 0 0 -390
0 0 0 0 0 0 0 0 0 0 0 0 0 0 0 0 0 0 0 0 0 0 0 0 0 0 0 0 0 0 0 0 0 0 0 0 0 0 0 0 0 0 0 -453 -361
0 0 0 0 0 0 0 0 0 0 0 0 0 0 0 0 0 0 0 0 0 0 0 0 0 0 0 0 0 0 0 0 0 0 0 0 0 0 0 0 0 0 -395 -354 -285
0 0 0 0 0 0 0 0 0 0 0 0 0 0 0 0 0 0 0 0 0 0 0 0 0 0 0 0 0 0 0 0 -29 -216 0 0 -75 -367 0 0 0 0 -345 -268 -372
Wind_Speed
23 23 23 23 23 23 22 22 21 21 20 20 20 21 21 22 21 20 20 19 8 21 18 19 14 16 18 16 16 18 24 23 24 25 26 25 25 20 23 26 21 20 21 28 30
25 24 24 25 25 25 24 23 23 22 21 21 20 20 22 22 21 24 22 22 12 18 18 14 14 18 18 17 18 21 24 22 21 24 26 26 25 24 24 23 20 21 26 28 29
26 26 26 26 26 27 26 25 24 24 23 22 21 20 22 20 19 15 18 24 18 16 15 13 12 17 17 19 20 19 22 21 22 24 26 26 23 20 25 20 18 21 28 29 28
27 27 27 28 28 28 28 27 27 26 24 23 22 21 21 17 4 13 15 8 12 8 13 13 14 16 19 21 19 21 17 17 23 26 26 25 24 22 16 15 19 25 29 28 27
29 28 29 29 29 29 30 29 29 28 27 25 23 22 18 17 22 16 12 8 4 10 14 14 15 16 21 17 19 21 18 17 23 24 25 25 22 22 18 22 26 28 28 27 25
30 30 30 30 30 31 31 31 31 30 29 27 24 22 18 20 16 12 10 8 7 7 11 14 11 12 15 17 18 19 23 23 22 22 22 23 23 20 20 23 25 26 25 24 25
30 31 31 31 31 32 32 32 33 32 30 28 23 20 20 26 8 20 21 14 11 9 11 13 15 14 11 18 18 21 20 19 21 19 20 24 20 17 20 22 23 22 22 23 24
31 31 31 31 32 32 33 33 33 32 28 23 19 20 22 20 22 25 20 22 18 17 15 14 16 14 14 15 10 17 18 16 14 16 15 13 15 17 19 21 20 19 19 20 22
31 31 31 31 32 32 33 33 29 22 18 15 19 20 25 24 20 18 16 18 15 15 17 14 13 12 12 14 13 14 14 12 11 14 14 12 11 13 17 17 17 17 18 19 20
31 31 31 31 31 31 32 27 19 17 17 18 20 22 22 19 20 24 18 16 15 17 15 14 12 10 11 9 11 13 14 16 13 12 13 10 7 13 16 15 16 15 15 17 18
31 31 31 30 29 29 26 18 21 20 21 22 21 23 23 23 21 18 18 13 16 18 13 14 10 6 1 6 12 13 14 14 14 12 11 9 10 10 13 13 12 13 13 17 18
31 30 29 29 28 25 20 17 17 22 25 26 29 32 31 23 23 20 18 14 16 17 16 16 11 8 19 14 11 13 15 19 16 13 11 11 5 7 8 11 13 13 14 22 18
29 29 28 28 25 17 17 16 21 17 22 24 20 22 23 19 22 21 16 16 17 17 19 20 22 16 17 18 12 13 13 17 23 19 15 13 4 6 8 10 13 16 17 23 21
27 26 25 25 16 19 15 20 23 14 19 20 18 17 17 17 23 20 17 17 18 19 17 23 24 20 20 19 15 19 14 17 20 19 4 14 7 7 8 8 13 19 21 23 23
22 22 22 21 18 15 18 24 20 15 18 21 17 16 15 14 20 21 19 18 21 19 18 20 20 21 21 23 16 22 19 23 22 19 14 11 6 19 5 10 11 17 21 21 23
18 18 19 16 15 15 22 22 15 15 17 19 16 20 14 16 17 16 17 18 18 22 24 27 23 22 20 17 17 23 21 22 21 19 18 5 4 15 19 12 13 12 17 19 22
15 9 15 16 16 19 20 15 14 16 18 21 19 18 14 15 15 17 16 16 20 25 29 28 30 26 23 24 22 20 23 25 23 19 21 21 3 9 20 19 19 11 15 19 22
15 20 17 15 15 19 16 13 13 15 17 19 16 16 15 16 16 17 18 26 25 23 26 28 31 24 20 20 21 20 18 20 24 22 24 20 7 11 10 25 26 15 13 14 15
10 21 21 17 17 17 16 14 12 15 18 20 17 15 18 18 15 14 16 17 19 19 26 25 31 24 22 19 17 20 21 17 22 23 25 22 21 27 27 17 21 14 8 10 15
20 21 24 20 19 19 17 15 14 13 18 16 16 16 18 20 17 17 17 18 19 20 21 24 32 27 23 22 22 22 17 22 22 26 28 24 22 14 14 26 17 6 4 7 14
19 19 21 18 18 21 19 16 15 12 13 13 17 19 18 20 19 17 19 18 23 23 19 22 26 30 23 25 28 25 24 24 22 23 28 31 29 14 5 17 29 19 4 5 12
19 19 18 18 21 20 20 17 16 18 20 16 18 18 19 20 20 19 21 21 25 24 24 21 25 31 31 26 26 26 26 23 25 26 26 28 33 24 20 25 28 27 18 1 4
18 17 18 17 19 20 18 18 15 19 22 18 18 19 19 21 22 20 24 26 25 24 24 24 24 30 29 24 22 26 25 25 24 24 27 30 34 25 27 25 24 26 23 2 1
17 16 17 18 18 18 17 17 17 18 17 17 19 19 20 22 23 24 28 27 30 25 25 20 20 22 28 31 28 28 25 23 23 26 25 29 35 38 34 32 26 22 7 4 3
19 17 17 14 16 18 16 15 17 17 18 22 18 23 21 21 24 24 26 30 31 22 26 24 25 27 31 32 28 27 25 21 23 26 27 25 25 31 30 33 32 27 18 4 12
18 19 19 16 16 15 15 15 16 16 12 17 21 24 19 22 23 30 31 29 27 26 29 25 26 28 32 26 28 29 27 26 26 23 25 22 25 20 32 29 28 25 7 9 11
20 18 18 18 18 15 13 15 13 18 12 12 21 19 19 20 31 33 19 18 24 30 29 26 26 30 32 30 33 29 28 23 19 20 22 24 24 30 31 32 31 25 5 12 9
Wind_Direction
304 300 297 296 296 295 295 293 292 289 284 280 276 275 273 271 259 244 224 213 174 113 59 106 135 121 127 121 133 114 84 92 94 91 90 108 101 115 106 115 127 131 127 135 130
306 301 297 295 294 293 293 292 291 288 285 282 277 276 275 273 256 227 234 218 83 103 116 123 111 106 110 107 123 93 86 95 104 94 96 107 104 106 100 105 121 110 108 117 128
306 301 297 294 292 292 291 290 288 286 284 282 278 275 276 268 261 276 259 215 127 112 77 145 120 111 112 103 122 120 100 107 100 93 96 101 109 115 98 104 121 118 121 127 132
305 301 298 294 292 290 290 288 288 285 282 281 278 277 276 276 2 281 271 296 112 296 354 178 126 130 109 102 128 104 132 124 105 84 90 97 98 109 116 121 110 115 124 128 137
307 303 298 296 292 290 289 287 285 285 282 279 278 281 287 277 245 273 292 291 326 64 118 169 123 144 56 117 122 98 116 138 101 82 85 88 94 97 106 95 91 108 121 133 139
308 304 300 296 293 290 288 286 284 283 281 278 279 280 289 274 276 278 287 302 327 49 36 303 276 199 122 118 117 118 89 82 82 78 95 81 88 94 101 100 98 110 124 133 143
308 305 303 299 294 290 287 284 283 280 278 275 282 294 287 237 316 265 260 278 297 320 332 337 255 258 203 70 85 101 77 44 54 96 92 78 86 87 103 110 109 117 126 134 144
308 305 302 300 297 292 288 284 281 279 281 286 292 293 284 275 270 260 264 260 272 283 293 309 272 288 308 37 305 78 87 72 89 110 117 139 93 100 110 118 117 117 126 139 147
306 304 302 299 297 295 291 288 286 297 301 306 295 290 280 273 275 282 277 267 274 287 286 301 314 339 1 47 59 19 51 75 78 135 110 119 100 110 122 124 124 126 135 147 157
306 302 299 299 297 295 294 293 311 312 308 299 289 288 282 281 281 272 281 273 275 283 290 291 303 321 334 25 57 33 32 26 60 73 147 125 121 113 141 136 137 135 139 149 160
302 300 300 297 295 297 307 315 305 302 299 285 286 278 281 282 284 282 280 276 274 273 275 284 285 283 349 343 346 0 3 18 39 60 62 141 171 128 146 146 147 151 147 163 168
303 299 294 293 294 295 327 330 327 305 293 287 277 269 270 284 278 280 277 272 271 264 268 278 267 274 287 302 323 337 342 341 12 38 44 39 149 149 143 169 170 164 171 180 175
301 299 298 293 289 327 334 352 325 340 303 293 296 289 281 274 272 272 281 271 277 270 266 268 277 276 282 288 306 315 332 340 328 346 360 13 72 56 165 170 177 184 182 186 180
301 296 294 294 334 321 331 322 311 348 306 309 303 306 302 281 270 270 275 278 276 272 274 276 273 271 273 279 292 293 321 331 331 338 59 0 214 63 180 176 187 197 191 190 184
296 291 291 317 330 336 322 302 324 334 293 306 320 322 312 290 282 269 272 274 270 273 275 275 280 276 270 270 279 285 305 308 317 330 339 352 40 237 128 204 194 198 194 190 187
292 284 286 24 2 336 295 303 337 313 300 315 323 319 318 306 287 290 273 273 278 275 276 271 275 282 280 279 279 285 296 307 317 323 318 200 145 222 237 209 225 192 195 186 184
289 256 76 54 9 310 305 339 321 314 316 310 313 318 323 318 310 287 285 276 271 274 273 275 270 275 277 273 278 282 286 292 300 308 309 315 344 204 241 233 231 213 196 179 179
293 60 77 79 73 323 349 343 330 328 325 322 319 326 334 321 324 314 291 275 281 279 278 273 270 270 274 274 274 274 275 282 289 298 305 312 317 216 214 256 260 218 181 169 169
318 50 55 73 61 47 30 16 14 337 331 314 315 323 319 325 323 326 334 312 293 281 273 275 269 276 272 274 277 273 271 285 290 298 297 304 314 257 286 228 230 341 11 143 162
31 43 37 55 60 30 36 31 40 30 334 333 323 327 314 319 323 321 318 328 309 304 290 279 272 273 277 273 273 274 274 275 283 286 287 297 307 324 333 252 221 92 95 108 145
38 45 34 56 59 38 34 30 50 79 33 353 327 317 320 313 320 322 321 319 324 310 309 290 279 276 279 269 267 272 272 275 281 283 288 288 292 323 228 259 259 217 139 108 143
49 43 52 56 30 47 38 29 32 3 352 346 327 322 315 313 310 311 315 316 317 317 305 304 286 277 276 280 277 271 269 269 271 278 285 289 286 303 314 296 284 243 191 341 98
29 49 47 56 39 33 40 35 53 13 345 354 343 330 321 314 307 308 306 300 310 315 310 307 292 283 280 285 284 273 269 269 273 279 277 283 286 297 300 300 290 286 204 225 342
25 42 37 38 41 36 39 39 36 23 20 8 356 346 334 320 314 304 303 302 298 303 312 314 299 293 280 280 286 280 272 268 267 270 278 284 287 273 282 283 296 299 289 207 181
360 20 24 39 20 11 30 35 26 21 10 351 354 336 339 335 322 317 314 306 301 300 305 305 294 292 288 285 285 281 281 271 266 272 274 286 293 282 286 283 287 293 287 238 165
13 6 3 16 13 16 15 19 17 16 35 10 351 335 342 330 328 312 315 312 301 299 298 301 289 296 286 290 296 277 278 276 277 277 278 284 290 300 288 294 294 291 276 206 185
2 7 2 1 2 10 19 6 16 2 23 22 354 351 342 337 315 306 328 324 313 295 291 291 290 287 281 292 288 276 277 279 281 288 282 278 290 296 288 288 286 289 252 204 248